TimeMDT,TemperatureF,Dew PointF,Humidity,Sea Level PressureIn,VisibilityMPH,Wind Direction,Wind SpeedMPH,Gust SpeedMPH,PrecipitationIn,Events,Conditions,WindDirDegrees,DateUTC
12:51 AM,44.1,39.0,82,29.96,10.0,Calm,Calm,-,N/A,,Clear,0,2013-06-23 06:51:00
1:51 AM,43.0,37.0,80,29.94,10.0,Calm,Calm,-,N/A,,Clear,0,2013-06-23 07:51:00
2:51 AM,41.0,36.0,82,29.94,10.0,Calm,Calm,-,N/A,,Clear,0,2013-06-23 08:51:00
3:51 AM,39.9,36.0,86,29.94,10.0,Calm,Calm,-,N/A,,Clear,0,2013-06-23 09:51:00
4:51 AM,37.9,35.1,89,29.93,10.0,Calm,Calm,-,N/A,,Clear,0,2013-06-23 10:51:00
5:51 AM,37.9,35.1,89,29.93,10.0,Calm,Calm,-,N/A,,Clear,0,2013-06-23 11:51:00
6:51 AM,39.9,37.0,89,29.89,10.0,Calm,Calm,-,N/A,,Clear,0,2013-06-23 12:51:00
7:51 AM,46.9,39.0,74,29.87,10.0,Calm,Calm,-,N/A,,Clear,0,2013-06-23 13:51:00
8:51 AM,48.9,41.0,74,29.88,10.0,Calm,Calm,-,N/A,,Mostly Cloudy,0,2013-06-23 14:51:00
9:51 AM,52.0,42.1,69,29.88,10.0,SSW,4.6,-,N/A,,Overcast,200,2013-06-23 15:51:00
10:51 AM,53.1,43.0,69,29.87,10.0,Calm,Calm,-,N/A,,Overcast,0,2013-06-23 16:51:00
11:51 AM,59.0,41.0,51,29.84,10.0,Calm,Calm,-,N/A,,Clear,0,2013-06-23 17:51:00
12:51 PM,64.0,42.1,45,29.81,10.0,Variable,3.5,-,N/A,,Mostly Cloudy,0,2013-06-23 18:51:00
1:51 PM,64.9,39.0,39,29.80,10.0,WSW,6.9,-,N/A,,Overcast,240,2013-06-23 19:51:00
2:51 PM,64.9,39.9,40,29.78,10.0,NNE,4.6,-,N/A,,Overcast,30,2013-06-23 20:51:00
3:51 PM,68.0,39.0,35,29.75,10.0,Calm,Calm,-,N/A,,Scattered Clouds,0,2013-06-23 21:51:00
4:51 PM,69.1,37.9,32,29.73,10.0,NNW,4.6,-,N/A,,Scattered Clouds,340,2013-06-23 22:51:00
5:51 PM,69.1,37.0,31,29.72,10.0,South,3.5,-,N/A,,Overcast,180,2013-06-23 23:51:00
6:51 PM,64.9,43.0,45,29.71,10.0,North,9.2,-,0.00,,Overcast,360,2013-06-24 00:51:00
7:51 PM,64.0,43.0,46,29.67,10.0,North,10.4,-,N/A,,Clear,360,2013-06-24 01:51:00
8:51 PM,63.0,43.0,48,29.65,10.0,North,5.8,-,N/A,,Mostly Cloudy,360,2013-06-24 02:51:00
9:51 PM,62.1,42.1,48,29.64,10.0,NNW,6.9,-,N/A,,Mostly Cloudy,330,2013-06-24 03:51:00
10:51 PM,61.0,44.1,54,29.66,10.0,North,3.5,-,N/A,,Overcast,350,2013-06-24 04:51:00
11:51 PM,59.0,44.1,58,29.64,10.0,Variable,4.6,-,N/A,,Scattered Clouds,0,2013-06-24 05:51:00